TimeCDT,TemperatureF,Dew PointF,Humidity,Sea Level PressureIn,VisibilityMPH,Wind Direction,Wind SpeedMPH,Gust SpeedMPH,PrecipitationIn,Events,Conditions,WindDirDegrees,DateUTC
12:53 AM,68.0,57.0,68,29.73,10.0,South,17.3,23.0,N/A,,Clear,170,2013-04-09 05:53:00
1:53 AM,66.9,57.0,70,29.73,10.0,SSE,16.1,23.0,N/A,,Partly Cloudy,160,2013-04-09 06:53:00
2:53 AM,64.9,57.0,75,29.72,10.0,South,13.8,20.7,N/A,,Partly Cloudy,170,2013-04-09 07:53:00
3:53 AM,64.0,57.0,78,29.72,10.0,South,12.7,-,N/A,,Clear,170,2013-04-09 08:53:00
4:53 AM,64.0,55.9,75,29.72,10.0,South,16.1,25.3,N/A,,Clear,170,2013-04-09 09:53:00
5:53 AM,63.0,55.9,78,29.72,10.0,South,16.1,25.3,N/A,,Partly Cloudy,170,2013-04-09 10:53:00
6:53 AM,64.9,57.0,75,29.73,10.0,South,13.8,20.7,N/A,,Overcast,170,2013-04-09 11:53:00
7:53 AM,64.9,57.9,78,29.75,10.0,South,10.4,21.9,N/A,,Overcast,180,2013-04-09 12:53:00
8:53 AM,66.0,59.0,78,29.76,10.0,South,11.5,-,N/A,,Overcast,170,2013-04-09 13:53:00
9:53 AM,66.0,60.1,81,29.77,10.0,South,12.7,19.6,N/A,,Overcast,180,2013-04-09 14:53:00
10:53 AM,68.0,61.0,78,29.78,10.0,South,13.8,18.4,N/A,,Overcast,170,2013-04-09 15:53:00
11:53 AM,70.0,61.0,73,29.76,10.0,South,18.4,27.6,N/A,,Overcast,170,2013-04-09 16:53:00
12:19 PM,71.6,60.8,69,29.79,10.0,SSE,13.8,26.5,N/A,,Overcast,150,2013-04-09 17:19:00
12:53 PM,73.9,62.1,66,29.75,10.0,SSE,16.1,21.9,N/A,,Mostly Cloudy,160,2013-04-09 17:53:00
1:53 PM,73.9,61.0,64,29.75,10.0,SE,11.5,20.7,N/A,,Overcast,130,2013-04-09 18:53:00
2:53 PM,73.9,60.1,62,29.75,10.0,South,11.5,27.6,N/A,,Mostly Cloudy,170,2013-04-09 19:53:00
3:53 PM,78.1,61.0,56,29.71,10.0,SSE,11.5,24.2,N/A,,Mostly Cloudy,150,2013-04-09 20:53:00
4:53 PM,80.1,60.1,50,29.70,10.0,SSE,15.0,23.0,N/A,,Mostly Cloudy,160,2013-04-09 21:53:00
5:53 PM,78.1,57.9,50,29.71,10.0,SSE,11.5,24.2,N/A,,Scattered Clouds,150,2013-04-09 22:53:00
6:53 PM,77.0,57.9,52,29.72,10.0,SSE,11.5,24.2,N/A,,Mostly Cloudy,160,2013-04-09 23:53:00
7:53 PM,75.9,57.0,52,29.72,10.0,SSE,11.5,18.4,N/A,,Mostly Cloudy,150,2013-04-10 00:53:00
8:53 PM,75.9,57.0,52,29.73,10.0,SSE,13.8,23.0,N/A,,Mostly Cloudy,150,2013-04-10 01:53:00
9:53 PM,75.0,60.1,60,29.75,10.0,SSE,11.5,19.6,N/A,,Scattered Clouds,160,2013-04-10 02:53:00
10:53 PM,73.9,61.0,64,29.71,10.0,South,20.7,28.8,N/A,,Scattered Clouds,170,2013-04-10 03:53:00
11:53 PM,72.0,62.1,71,29.72,10.0,South,12.7,25.3,N/A,,Clear,170,2013-04-10 04:53:00